Location: ???? ?????????
(31.1304°N, 31.7111°E)
Time: 16:19:38
(UTC+00:00)

Transit 2A - All Passes

Search period start: 27 February 2021 00:00
Search period end: 09 March 2021 00:00
Orbit: 600 x 958 km, 66.7° (Epoch: 26 February)

Date Brightness Start Highest point End Pass type
(mag) Time Alt. Az. Time Alt. Az. Time Alt. Az.
27 Feb - 02:15:33 10° N 02:19:19 28° ENE 02:23:07 10° ESE visible
27 Feb - 03:59:10 10° WNW 04:02:10 18° WSW 04:05:14 10° SSW visible
27 Feb - 16:48:38 10° SSW 16:54:22 89° ESE 16:59:33 10° NNE visible
27 Feb - 18:37:14 10° WNW 18:37:58 10° NW 18:38:42 10° NW visible
28 Feb - 01:42:01 10° NNE 01:45:01 18° ENE 01:48:02 10° E visible
28 Feb - 03:24:18 10° NW 03:28:08 31° WSW 03:32:02 10° S visible
28 Feb - 16:14:38 10° S 16:20:14 58° ESE 16:25:19 10° NE visible
28 Feb - 18:00:20 10° W 18:03:35 16° NW 18:06:42 10° NNW visible
01 Mar - 01:09:17 10° NE 01:10:39 11° NE 01:12:02 10° ENE visible
01 Mar - 02:49:50 10° NW 02:54:02 53° WSW 02:58:22 10° S visible
01 Mar - 15:40:55 10° S 15:46:08 37° ESE 15:50:53 10° NE daylight
01 Mar - 17:24:53 10° WSW 17:29:16 24° WNW 17:33:22 10° N visible
02 Mar - 02:15:35 10° NNW 02:19:55 89° NE 02:24:23 10° SSE visible
02 Mar - 15:07:35 10° SSE 15:12:02 24° ESE 15:16:11 10° ENE daylight
02 Mar - 16:49:56 10° SW 16:55:01 35° WNW 16:59:41 10° N visible
03 Mar - 01:41:31 10° NNW 01:45:45 52° ENE 01:50:06 10° SE visible
03 Mar - 14:34:52 10° SE 14:37:59 15° ESE 14:40:58 10° ENE daylight
03 Mar - 16:15:19 10° SW 16:20:49 54° WNW 16:25:48 10° NNE visible
04 Mar - 01:07:40 10° N 01:11:33 31° ENE 01:15:29 10° ESE visible
04 Mar - 02:51:35 10° WNW 02:54:22 17° WSW 02:57:13 10° SSW visible
04 Mar - 15:40:59 10° SSW 15:46:39 84° WNW 15:51:45 10° NNE daylight
05 Mar - 00:34:05 10° N 00:37:16 20° ENE 00:40:30 10° ESE night (unlit)
05 Mar - 02:16:37 10° NW 02:20:19 28° WSW 02:24:09 10° SSW night (unlit)
05 Mar - 15:06:54 10° SSW 15:12:30 63° ESE 15:17:33 10° NNE daylight
05 Mar - 16:53:02 10° W 16:55:53 14° NW 16:58:37 10° NNW visible
06 Mar - 00:01:04 10° NNE 00:02:56 12° NE 00:04:48 10° E night (unlit)
06 Mar - 01:42:05 10° NW 01:46:15 47° WSW 01:50:34 10° S night (unlit)
06 Mar - 14:33:08 10° S 14:38:23 40° ESE 14:43:10 10° NE daylight
06 Mar - 16:17:27 10° WSW 16:21:33 22° WNW 16:25:25 10° N visible
07 Mar - 01:07:47 10° NNW 01:12:08 83° WSW 01:16:38 10° SSE night (unlit)
07 Mar - 13:59:43 10° SSE 14:04:17 26° ESE 14:08:31 10° NE daylight
07 Mar - 15:42:24 10° WSW 15:47:18 32° WNW 15:51:48 10° N daylight
08 Mar - 00:33:42 10° NNW 00:37:59 58° ENE 00:42:24 10° SE night (unlit)
08 Mar - 13:26:51 10° SE 13:30:14 16° ESE 13:33:25 10° ENE daylight
08 Mar - 15:07:42 10° SW 15:13:05 49° WNW 15:17:58 10° NNE daylight
